• In Uzbekistan
  • List of Countries
  • For 7 days
  • Water Temperature
  • Weather Map
  • Weather Widgets
  • user-avatar
    Login

    Hourly Weather Aberdeen

    Today, 5 June, Friday

    Time Temperature Precipitation Wind Pressure Humidity
    00:00 +4°C° 0.1 mm 3 mps 740 mmHg 90%
    01:00 +3°C° 0 mm 3 mps 740 mmHg 90%
    02:00 +3°C° 0 mm 3 mps 739 mmHg 90%
    03:00 +3°C° 0 mm 4 mps 739 mmHg 90%
    04:00 +3°C° 0 mm 4 mps 739 mmHg 89%
    05:00 +3°C° 0 mm 5 mps 738 mmHg 87%
    06:00 +5°C° 0 mm 5 mps 738 mmHg 86%
    07:00 +5°C° 0 mm 6 mps 738 mmHg 80%
    08:00 +6°C° 0 mm 7 mps 737 mmHg 73%
    09:00 +8°C° 0 mm 7 mps 737 mmHg 67%
    10:00 +7°C° 0.1 mm 8 mps 736 mmHg 65%
    11:00 +8°C° 0.1 mm 9 mps 735 mmHg 63%
    12:00 +8°C° 0.1 mm 10 mps 735 mmHg 62%
    13:00 +8°C° 0.1 mm 10 mps 734 mmHg 63%
    14:00 +7°C° 0.1 mm 11 mps 733 mmHg 65%
    15:00 +7°C° 0.1 mm 12 mps 733 mmHg 67%
    16:00 +6°C° 0.4 mm 11 mps 732 mmHg 72%
    17:00 +6°C° 0.4 mm 11 mps 731 mmHg 78%
    18:00 +5°C° 0.4 mm 10 mps 731 mmHg 83%
    19:00 +6°C° 0.5 mm 9 mps 731 mmHg 86%
    20:00 +6°C° 0.5 mm 7 mps 731 mmHg 89%
    21:00 +7°C° 0.5 mm 6 mps 731 mmHg 92%
    22:00 +7°C° 0.6 mm 6 mps 731 mmHg 92%
    23:00 +7°C° 0.6 mm 6 mps 731 mmHg 92%

    Tomorrow, 6 June, Saturday

    Time Temperature Precipitation Wind Pressure Humidity
    00:00 +7°C° 0.6 mm 5 mps 731 mmHg 92%
    01:00 +7°C° 0 mm 6 mps 731 mmHg 91%
    02:00 +5°C° 0 mm 6 mps 732 mmHg 91%
    03:00 +4°C° 0 mm 7 mps 733 mmHg 90%
    04:00 +5°C° 0 mm 7 mps 734 mmHg 89%
    05:00 +6°C° 0 mm 7 mps 734 mmHg 88%
    06:00 +8°C° 0 mm 6 mps 735 mmHg 87%
    07:00 +9°C° 0 mm 6 mps 736 mmHg 80%
    08:00 +11°C° 0 mm 6 mps 737 mmHg 72%
    09:00 +13°C° 0 mm 6 mps 738 mmHg 65%
    10:00 +14°C° 0.1 mm 6 mps 738 mmHg 66%
    11:00 +14°C° 0.1 mm 5 mps 739 mmHg 66%
    12:00 +14°C° 0.1 mm 5 mps 739 mmHg 67%
    13:00 +14°C° 0.2 mm 4 mps 739 mmHg 69%
    14:00 +14°C° 0.2 mm 3 mps 740 mmHg 70%
    15:00 +14°C° 0.2 mm 3 mps 740 mmHg 72%
    16:00 +15°C° 0.5 mm 2 mps 740 mmHg 76%
    17:00 +14°C° 0.5 mm 2 mps 740 mmHg 79%
    18:00 +13°C° 0.5 mm 1 mps 740 mmHg 83%
    19:00 +12°C° 0.6 mm 1 mps 741 mmHg 86%
    20:00 +11°C° 0.6 mm 1 mps 742 mmHg 90%
    21:00 +11°C° 0.6 mm 1 mps 742 mmHg 94%
    22:00 +10°C° 0.8 mm 2 mps 742 mmHg 94%
    23:00 +9°C° 0.8 mm 2 mps 742 mmHg 95%

    Day after tomorrow, 7 June, Sunday

    Time Temperature Precipitation Wind Pressure Humidity
    00:00 +9°C° 0.8 mm 3 mps 743 mmHg 95%
    01:00 +9°C° 0.5 mm 3 mps 743 mmHg 95%
    02:00 +9°C° 0.5 mm 3 mps 743 mmHg 94%
    03:00 +8°C° 0.5 mm 4 mps 744 mmHg 93%
    04:00 +10°C° 0.3 mm 4 mps 744 mmHg 93%
    05:00 +10°C° 0.3 mm 4 mps 744 mmHg 92%
    06:00 +10°C° 0.3 mm 4 mps 745 mmHg 91%
    07:00 +11°C° 0.1 mm 4 mps 745 mmHg 89%
    08:00 +10°C° 0.1 mm 5 mps 746 mmHg 86%
    09:00 +12°C° 0.1 mm 5 mps 747 mmHg 84%
    10:00 +13°C° 0 mm 6 mps 748 mmHg 79%
    11:00 +14°C° 0 mm 6 mps 748 mmHg 73%
    12:00 +14°C° 0 mm 7 mps 749 mmHg 68%
    13:00 +14°C° 0 mm 7 mps 750 mmHg 68%
    14:00 +14°C° 0 mm 7 mps 750 mmHg 67%
    15:00 +14°C° 0 mm 7 mps 751 mmHg 66%
    16:00 +13°C° 0 mm 6 mps 751 mmHg 69%
    17:00 +12°C° 0 mm 5 mps 751 mmHg 71%
    18:00 +10°C° 0 mm 5 mps 752 mmHg 73%
    19:00 +9°C° 0 mm 5 mps 752 mmHg 75%
    20:00 +8°C° 0 mm 5 mps 753 mmHg 77%
    21:00 +6°C° 0 mm 5 mps 753 mmHg 80%
    22:00 +5°C° 0 mm 5 mps 754 mmHg 81%
    23:00 +4°C° 0 mm 4 mps 754 mmHg 83%

    8 June, Monday

    Time Temperature Precipitation Wind Pressure Humidity
    00:00 +3°C° 0 mm 3 mps 754 mmHg 84%
    01:00 +3°C° 0 mm 3 mps 754 mmHg 85%
    02:00 +2°C° 0 mm 3 mps 754 mmHg 86%
    03:00 +2°C° 0 mm 3 mps 755 mmHg 86%
    04:00 +3°C° 0 mm 3 mps 755 mmHg 82%
    05:00 +4°C° 0 mm 3 mps 755 mmHg 79%
    06:00 +5°C° 0 mm 3 mps 755 mmHg 75%
    07:00 +7°C° 0 mm 3 mps 756 mmHg 71%
    08:00 +8°C° 0 mm 3 mps 756 mmHg 67%
    09:00 +9°C° 0 mm 3 mps 757 mmHg 63%
    10:00 +10°C° 0 mm 2 mps 757 mmHg 63%
    11:00 +10°C° 0 mm 2 mps 757 mmHg 62%
    12:00 +12°C° 0 mm 2 mps 757 mmHg 62%
    13:00 +12°C° 0 mm 2 mps 757 mmHg 63%
    14:00 +12°C° 0 mm 2 mps 757 mmHg 64%
    15:00 +11°C° 0 mm 3 mps 757 mmHg 65%
    16:00 +11°C° 0 mm 3 mps 758 mmHg 68%
    17:00 +10°C° 0 mm 3 mps 758 mmHg 70%
    18:00 +10°C° 0 mm 3 mps 758 mmHg 73%
    19:00 +9°C° 0 mm 3 mps 758 mmHg 75%
    20:00 +8°C° 0 mm 2 mps 759 mmHg 76%
    21:00 +8°C° 0 mm 2 mps 759 mmHg 78%
    22:00 +7°C° 0 mm 2 mps 759 mmHg 80%
    23:00 +8°C° 0 mm 1 mps 759 mmHg 81%

    9 June, Tuesday

    Time Temperature Precipitation Wind Pressure Humidity
    00:00 +7°C° 0 mm 1 mps 760 mmHg 83%
    01:00 +7°C° 0 mm 1 mps 760 mmHg 83%
    02:00 +7°C° 0 mm 1 mps 760 mmHg 82%
    03:00 +7°C° 0 mm 1 mps 760 mmHg 82%
    04:00 +7°C° 0 mm 1 mps 760 mmHg 81%
    05:00 +8°C° 0 mm 1 mps 760 mmHg 79%
    06:00 +9°C° 0 mm 1 mps 760 mmHg 78%
    07:00 +9°C° 0 mm 1 mps 761 mmHg 76%
    08:00 +10°C° 0 mm 1 mps 761 mmHg 73%
    09:00 +11°C° 0 mm 1 mps 761 mmHg 71%
    10:00 +10°C° 0 mm 2 mps 761 mmHg 71%
    11:00 +12°C° 0 mm 2 mps 761 mmHg 71%
    12:00 +12°C° 0 mm 2 mps 761 mmHg 71%
    13:00 +12°C° 0 mm 2 mps 761 mmHg 71%
    14:00 +12°C° 0 mm 2 mps 761 mmHg 71%
    15:00 +13°C° 0 mm 2 mps 761 mmHg 71%
    16:00 +12°C° 0 mm 2 mps 761 mmHg 72%
    17:00 +12°C° 0 mm 2 mps 761 mmHg 73%
    18:00 +12°C° 0 mm 2 mps 762 mmHg 74%
    19:00 +9°C° 0 mm 2 mps 762 mmHg 79%
    20:00 +9°C° 0 mm 1 mps 762 mmHg 83%
    21:00 +7°C° 0 mm 1 mps 763 mmHg 88%
    22:00 +7°C° 0 mm 1 mps 763 mmHg 88%
    23:00 +7°C° 0 mm 1 mps 763 mmHg 88%

    10 June, Wednesday

    Time Temperature Precipitation Wind Pressure Humidity
    00:00 +5°C° 0 mm 0 mps 763 mmHg 88%
    01:00 +5°C° 0 mm 0 mps 763 mmHg 88%
    02:00 +6°C° 0 mm 1 mps 763 mmHg 89%
    03:00 +6°C° 0 mm 1 mps 763 mmHg 89%
    04:00 +7°C° 0 mm 1 mps 763 mmHg 87%
    05:00 +8°C° 0 mm 1 mps 763 mmHg 84%
    06:00 +10°C° 0 mm 1 mps 763 mmHg 82%
    07:00 +11°C° 0 mm 1 mps 763 mmHg 79%
    08:00 +13°C° 0 mm 1 mps 763 mmHg 76%
    09:00 +15°C° 0 mm 1 mps 764 mmHg 73%
    10:00 +15°C° 0 mm 1 mps 764 mmHg 72%
    11:00 +16°C° 0 mm 2 mps 764 mmHg 71%
    12:00 +17°C° 0 mm 2 mps 764 mmHg 70%
    13:00 +16°C° 0 mm 2 mps 763 mmHg 71%
    14:00 +16°C° 0 mm 2 mps 763 mmHg 72%
    15:00 +16°C° 0 mm 3 mps 763 mmHg 73%
    16:00 +16°C° 0 mm 3 mps 763 mmHg 74%
    17:00 +14°C° 0 mm 3 mps 763 mmHg 76%
    18:00 +14°C° 0 mm 2 mps 763 mmHg 77%
    19:00 +13°C° 0 mm 2 mps 763 mmHg 81%
    20:00 +11°C° 0 mm 1 mps 764 mmHg 85%
    21:00 +9°C° 0 mm 1 mps 764 mmHg 89%
    22:00 +9°C° 0 mm 1 mps 764 mmHg 89%
    23:00 +8°C° 0 mm 1 mps 764 mmHg 90%
    Show more